| time (UTC) | temp F | wind direction | speed MPH | gust MPH | rain 1hr in | rain 24hr in | rain mn in | humidity % | barometer mb |
| 20260505100137 | 55 | 19 | 3.0 | 3.0 | 0.00 | 0.26 | 0.00 | 56 | 1005.9 |
| 20260505095636 | 55 | 360 | 3.0 | 3.0 | 0.00 | 0.26 | 0.00 | 55 | 1005.8 |
| 20260505095137 | 55 | 345 | 4.0 | 4.0 | 0.00 | 0.26 | 0.00 | 54 | 1005.8 |
| 20260505094637 | 55 | 335 | 2.0 | 3.0 | 0.00 | 0.26 | 0.00 | 53 | 1005.9 |
| 20260505094137 | 55 | 359 | 3.0 | 3.0 | 0.00 | 0.26 | 0.00 | 53 | 1005.6 |
| 20260505093637 | 56 | 1 | 3.0 | 3.0 | 0.00 | 0.26 | 0.00 | 53 | 1005.8 |
| 20260505093137 | 56 | 301 | 4.0 | 3.0 | 0.00 | 0.26 | 0.00 | 54 | 1005.8 |
| 20260505092636 | 56 | 328 | 4.0 | 3.0 | 0.00 | 0.26 | 0.00 | 52 | 1005.4 |
| 20260505092138 | 56 | 311 | 1.0 | 3.0 | 0.00 | 0.26 | 0.00 | 51 | 1005.5 |
| 20260505091636 | 57 | 338 | 2.0 | 4.0 | 0.00 | 0.26 | 0.00 | 49 | 1005.4 |
| 20260505091137 | 57 | 359 | 5.0 | 5.0 | 0.00 | 0.26 | 0.00 | 49 | 1005.6 |
| 20260505090637 | 57 | 326 | 3.0 | 5.0 | 0.00 | 0.26 | 0.00 | 50 | 1005.3 |
| 20260505090137 | 57 | 328 | 5.0 | 6.0 | 0.00 | 0.26 | 0.00 | 49 | 1005.1 |
| 20260505085637 | 58 | 312 | 8.0 | 6.0 | 0.00 | 0.26 | 0.00 | 48 | 1004.8 |
| 20260505085137 | 58 | 316 | 4.0 | 5.0 | 0.00 | 0.26 | 0.00 | 46 | 1004.8 |
| 20260505084636 | 58 | 294 | 3.0 | 5.0 | 0.00 | 0.26 | 0.00 | 46 | 1004.7 |
| 20260505084137 | 59 | 324 | 3.0 | 5.0 | 0.00 | 0.26 | 0.00 | 45 | 1004.2 |
| 20260505083636 | 59 | 330 | 6.0 | 3.0 | 0.00 | 0.26 | 0.00 | 45 | 1004.1 |
| 20260505083137 | 59 | 328 | 4.0 | 3.0 | 0.00 | 0.26 | 0.00 | 45 | 1003.6 |
| 20260505082636 | 59 | 304 | 2.0 | 3.0 | 0.00 | 0.26 | 0.00 | 45 | 1003.7 |
| 20260505082137 | 59 | 307 | 1.0 | 3.0 | 0.00 | 0.26 | 0.00 | 45 | 1003.7 |
| 20260505081636 | 60 | 307 | 3.0 | 2.0 | 0.00 | 0.26 | 0.00 | 44 | 1003.6 |
| 20260505081137 | 60 | 321 | 3.0 | 3.0 | 0.00 | 0.26 | 0.00 | 44 | 1003.5 |
| 20260505080637 | 60 | 290 | 1.0 | 4.0 | 0.00 | 0.26 | 0.00 | 43 | 1003.3 |
| 20260505080137 | 60 | 314 | 3.0 | 4.0 | 0.00 | 0.26 | 0.00 | 43 | 1003.1 |
| 20260505075636 | 60 | 321 | 3.0 | 3.0 | 0.00 | 0.26 | 0.00 | 43 | 1003.0 |
| 20260505075137 | 60 | 340 | 4.0 | 3.0 | 0.00 | 0.26 | 0.00 | 43 | 1003.2 |
| 20260505074636 | 60 | 337 | 5.0 | 3.0 | 0.00 | 0.26 | 0.00 | 43 | 1003.0 |
| 20260505074137 | 60 | 297 | 2.0 | 2.0 | 0.00 | 0.26 | 0.00 | 43 | 1003.0 |
| 20260505073636 | 60 | 323 | 3.0 | 2.0 | 0.00 | 0.26 | 0.00 | 43 | 1002.8 |
| 20260505073137 | 61 | 282 | 2.0 | 3.0 | 0.00 | 0.26 | 0.00 | 42 | 1002.6 |
| 20260505072636 | 61 | 303 | 4.0 | 2.0 | 0.00 | 0.26 | 0.00 | 42 | 1002.6 |
| 20260505072137 | 61 | 293 | 3.0 | 2.0 | 0.00 | 0.26 | 0.00 | 42 | 1002.6 |
| 20260505071636 | 61 | 285 | 2.0 | 3.0 | 0.00 | 0.26 | 0.00 | 41 | 1002.5 |
| 20260505071137 | 61 | 280 | 4.0 | 2.0 | 0.00 | 0.26 | 0.00 | 41 | 1002.4 |
| 20260505070637 | 61 | 328 | 4.0 | 3.0 | 0.00 | 0.26 | 0.00 | 40 | 1002.2 |
| 20260505070137 | 61 | 325 | 1.0 | 4.0 | 0.00 | 0.26 | 0.00 | 40 | 1002.4 |
| 20260505065636 | 61 | 255 | 4.0 | 3.0 | 0.00 | 0.26 | 0.00 | 40 | 1002.3 |
| 20260505065137 | 62 | 332 | 9.0 | 4.0 | 0.00 | 0.26 | 0.00 | 40 | 1002.3 |
| 20260505064636 | 62 | 356 | 3.0 | 4.0 | 0.00 | 0.26 | 0.00 | 40 | 1002.3 |
| 20260505064138 | 62 | 309 | 5.0 | 4.0 | 0.00 | 0.26 | 0.00 | 40 | 1002.2 |
| 20260505063637 | 62 | 324 | 2.0 | 4.0 | 0.00 | 0.26 | 0.00 | 40 | 1002.2 |
| 20260505063137 | 62 | 288 | 4.0 | 4.0 | 0.00 | 0.26 | 0.00 | 39 | 1002.2 |
| 20260505062637 | 62 | 308 | 5.0 | 4.0 | 0.00 | 0.26 | 0.00 | 39 | 1002.0 |
| 20260505062137 | 62 | 285 | 1.0 | 4.0 | 0.00 | 0.26 | 0.00 | 40 | 1001.9 |
| 20260505061637 | 62 | 316 | 5.0 | 4.0 | 0.00 | 0.26 | 0.00 | 39 | 1001.8 |
| 20260505061137 | 62 | 23 | 2.0 | 4.0 | 0.00 | 0.26 | 0.00 | 40 | 1001.8 |
| 20260505060636 | 62 | 321 | 5.0 | 4.0 | 0.00 | 0.26 | 0.00 | 40 | 1001.9 |
| 20260505060137 | 62 | 291 | 3.0 | 3.0 | 0.00 | 0.26 | 0.00 | 40 | 1002.0 |
| 20260505055637 | 62 | 252 | 2.0 | 3.0 | 0.00 | 0.26 | 0.00 | 41 | 1002.0 |
| 20260505055137 | 62 | 342 | 4.0 | 3.0 | 0.00 | 0.26 | 0.00 | 42 | 1002.0 |
| 20260505054636 | 62 | 284 | 4.0 | 3.0 | 0.00 | 0.26 | 0.00 | 42 | 1002.1 |
| 20260505054137 | 62 | 337 | 3.0 | 3.0 | 0.00 | 0.26 | 0.00 | 43 | 1002.0 |
| 20260505053636 | 62 | 275 | 3.0 | 3.0 | 0.00 | 0.26 | 0.00 | 45 | 1001.9 |
| 20260505053137 | 62 | 270 | 4.0 | 4.0 | 0.00 | 0.26 | 0.00 | 46 | 1001.8 |
| 20260505052636 | 62 | 316 | 2.0 | 4.0 | 0.00 | 0.26 | 0.00 | 49 | 1001.5 |
| 20260505052137 | 62 | 318 | 7.0 | 3.0 | 0.00 | 0.26 | 0.00 | 53 | 1001.4 |
| 20260505051637 | 62 | 274 | 3.0 | 2.0 | 0.00 | 0.26 | 0.00 | 57 | 1001.3 |
| 20260505051137 | 62 | 310 | 6.0 | 2.0 | 0.00 | 0.26 | 0.00 | 60 | 1001.3 |
| 20260505050636 | 62 | 275 | 1.0 | 3.0 | 0.00 | 0.26 | 0.00 | 62 | 1001.1 |
| 20260505050137 | 62 | 293 | 1.0 | 3.0 | 0.00 | 0.26 | 0.00 | 62 | 1000.9 |
| 20260505041636 | 63 | 236 | 2.0 | 2.0 | 0.00 | 0.26 | 0.26 | 69 | 1000.5 |
| 20260505041137 | 63 | 214 | 2.0 | 3.0 | 0.00 | 0.26 | 0.26 | 69 | 1000.4 |
| 20260505040637 | 63 | 221 | 2.0 | 3.0 | 0.00 | 0.26 | 0.26 | 69 | 1000.6 |
| 20260505040137 | 63 | 199 | 3.0 | 3.0 | 0.00 | 0.26 | 0.26 | 70 | 1000.6 |
| 20260505035637 | 63 | 167 | 2.0 | 3.0 | 0.00 | 0.26 | 0.26 | 70 | 1000.6 |
| 20260505035137 | 63 | 236 | 3.0 | 2.0 | 0.00 | 0.26 | 0.26 | 70 | 1000.6 |
| 20260505034636 | 64 | 195 | 3.0 | 3.0 | 0.00 | 0.26 | 0.26 | 70 | 1000.5 |
| 20260505034137 | 64 | 226 | 1.0 | 4.0 | 0.00 | 0.26 | 0.26 | 70 | 1000.5 |
| 20260505033637 | 64 | 219 | 4.0 | 4.0 | 0.00 | 0.26 | 0.26 | 70 | 1000.5 |
| 20260505033137 | 64 | 209 | 4.0 | 4.0 | 0.00 | 0.26 | 0.26 | 70 | 1000.4 |
| 20260505032636 | 63 | 211 | 3.0 | 4.0 | 0.00 | 0.26 | 0.26 | 70 | 1000.1 |
| 20260505032137 | 63 | 200 | 3.0 | 3.0 | 0.00 | 0.26 | 0.26 | 71 | 1000.0 |
| 20260505031636 | 63 | 201 | 6.0 | 2.0 | 0.00 | 0.26 | 0.26 | 72 | 999.9 |
| 20260505031137 | 63 | 260 | 2.0 | 2.0 | 0.00 | 0.26 | 0.26 | 72 | 1000.1 |
| 20260505030636 | 63 | 192 | 3.0 | 3.0 | 0.00 | 0.26 | 0.26 | 72 | 1000.1 |
| 20260505030137 | 63 | 197 | 3.0 | 3.0 | 0.00 | 0.26 | 0.26 | 72 | 1000.3 |
| 20260505025636 | 63 | 207 | 4.0 | 4.0 | 0.00 | 0.26 | 0.26 | 72 | 1000.3 |
| 20260505025136 | 63 | 243 | 4.0 | 5.0 | 0.00 | 0.26 | 0.26 | 72 | 1000.2 |
| 20260505024636 | 64 | 214 | 8.0 | 4.0 | 0.00 | 0.26 | 0.26 | 72 | 999.8 |
| 20260505024136 | 64 | 231 | 2.0 | 5.0 | 0.00 | 0.26 | 0.26 | 72 | 999.9 |
| 20260505023636 | 64 | 214 | 6.0 | 6.0 | 0.00 | 0.26 | 0.26 | 72 | 999.8 |
| 20260505023137 | 64 | 185 | 4.0 | 5.0 | 0.00 | 0.26 | 0.26 | 72 | 999.6 |
| 20260505022636 | 64 | 187 | 7.0 | 5.0 | 0.00 | 0.26 | 0.26 | 72 | 999.5 |
| 20260505022136 | 64 | 206 | 2.0 | 4.0 | 0.00 | 0.26 | 0.26 | 73 | 999.2 |
| 20260505021636 | 64 | 212 | 4.0 | 4.0 | 0.00 | 0.26 | 0.26 | 73 | 999.0 |
| 20260505021137 | 64 | 205 | 3.0 | 5.0 | 0.00 | 0.26 | 0.26 | 73 | 999.1 |
| 20260505020636 | 64 | 177 | 5.0 | 5.0 | 0.00 | 0.26 | 0.26 | 73 | 999.0 |
| 20260505020136 | 64 | 220 | 8.0 | 6.0 | 0.00 | 0.26 | 0.26 | 74 | 999.2 |
| 20260505015637 | 64 | 206 | 5.0 | 7.0 | 0.00 | 0.26 | 0.26 | 74 | 999.2 |
| 20260505015136 | 64 | 195 | 11.0 | 6.0 | 0.00 | 0.26 | 0.26 | 74 | 999.1 |
| 20260505014636 | 64 | 226 | 9.0 | 5.0 | 0.00 | 0.26 | 0.26 | 75 | 999.4 |
| 20260505014137 | 64 | 225 | 4.0 | 4.0 | 0.00 | 0.26 | 0.26 | 75 | 999.2 |
| 20260505013636 | 64 | 220 | 3.0 | 5.0 | 0.00 | 0.26 | 0.26 | 76 | 998.8 |
| 20260505013137 | 64 | 213 | 5.0 | 6.0 | 0.00 | 0.26 | 0.26 | 77 | 998.7 |
| 20260505012636 | 64 | 211 | 6.0 | 6.0 | 0.00 | 0.26 | 0.26 | 77 | 998.6 |
| 20260505012136 | 63 | 202 | 3.0 | 6.0 | 0.00 | 0.26 | 0.26 | 79 | 998.6 |
| 20260505011637 | 63 | 193 | 6.0 | 5.0 | 0.00 | 0.26 | 0.26 | 80 | 998.6 |
| 20260505011136 | 63 | 191 | 3.0 | 3.0 | 0.00 | 0.26 | 0.26 | 81 | 998.3 |
| 20260505010636 | 63 | 222 | 4.0 | 2.0 | 0.00 | 0.26 | 0.26 | 82 | 998.0 |
| 20260505010136 | 63 | 214 | 1.0 | 2.0 | 0.00 | 0.26 | 0.26 | 82 | 998.0 |
| 20260505005636 | 63 | 210 | 3.0 | 1.0 | 0.00 | 0.26 | 0.26 | 82 | 998.1 |
| 20260505005137 | 63 | 0 | 0.0 | 1.0 | 0.00 | 0.26 | 0.26 | 82 | 998.1 |
| 20260505004636 | 63 | 210 | 1.0 | 2.0 | 0.05 | 0.26 | 0.26 | 82 | 998.1 |
| 20260505004138 | 63 | 184 | 3.0 | 3.0 | 0.10 | 0.26 | 0.26 | 82 | 998.2 |
| 20260505003636 | 63 | 212 | 3.0 | 3.0 | 0.12 | 0.26 | 0.26 | 82 | 998.1 |
| 20260505003137 | 63 | 202 | 5.0 | 2.0 | 0.21 | 0.26 | 0.26 | 82 | 998.2 |
| 20260505002636 | 63 | 217 | 3.0 | 2.0 | 0.21 | 0.26 | 0.26 | 82 | 998.2 |
| 20260505002136 | 64 | 202 | 2.0 | 2.0 | 0.22 | 0.26 | 0.26 | 82 | 998.0 |
| 20260505001636 | 64 | 0 | 0.0 | 2.0 | 0.26 | 0.26 | 0.26 | 81 | 997.8 |
| 20260505001136 | 64 | 200 | 2.0 | 2.0 | 0.26 | 0.26 | 0.26 | 80 | 997.5 |
| 20260505000636 | 64 | 223 | 3.0 | 3.0 | 0.26 | 0.26 | 0.26 | 79 | 997.3 |
| 20260505000137 | 64 | 193 | 4.0 | 3.0 | 0.26 | 0.26 | 0.26 | 78 | 997.1 |
| 20260504235636 | 64 | 193 | 7.0 | 5.0 | 0.26 | 0.26 | 0.26 | 76 | 997.0 |
| 20260504235136 | 65 | 221 | 4.0 | 5.0 | 0.26 | 0.26 | 0.26 | 73 | 997.4 |
| 20260504234636 | 66 | 221 | 14.0 | 4.0 | 0.21 | 0.21 | 0.21 | 70 | 998.4 |
| 20260504234136 | 68 | 227 | 2.0 | 3.0 | 0.15 | 0.15 | 0.15 | 68 | 998.5 |
| 20260504233636 | 69 | 216 | 4.0 | 4.0 | 0.13 | 0.13 | 0.13 | 67 | 998.9 |
| 20260504233136 | 70 | 271 | 3.0 | 4.0 | 0.05 | 0.05 | 0.05 | 64 | 998.4 |
| 20260504232636 | 72 | 333 | 1.0 | 7.0 | 0.05 | 0.05 | 0.05 | 62 | 998.2 |
| 20260504232137 | 74 | 360 | 6.0 | 6.0 | 0.04 | 0.04 | 0.04 | 58 | 998.2 |
| 20260504231636 | 75 | 305 | 5.0 | 3.0 | 0.00 | 0.00 | 0.00 | 49 | 997.8 |
| 20260504231136 | 75 | 241 | 2.0 | 4.0 | 0.00 | 0.00 | 0.00 | 49 | 997.5 |
| 20260504230636 | 75 | 236 | 5.0 | 4.0 | 0.00 | 0.00 | 0.00 | 49 | 997.4 |
| 20260504230137 | 75 | 214 | 3.0 | 6.0 | 0.00 | 0.00 | 0.00 | 48 | 997.2 |
| 20260504225636 | 76 | 205 | 5.0 | 7.0 | 0.00 | 0.00 | 0.00 | 48 | 997.3 |
| 20260504225137 | 76 | 201 | 9.0 | 7.0 | 0.00 | 0.00 | 0.00 | 46 | 997.2 |
| 20260504224638 | 78 | 207 | 20.0 | 8.0 | 0.00 | 0.00 | 0.00 | 44 | 997.1 |
| 20260504224136 | 79 | 237 | 6.0 | 9.0 | 0.00 | 0.00 | 0.00 | 43 | 997.2 |
| 20260504223636 | 80 | 234 | 5.0 | 7.0 | 0.00 | 0.00 | 0.00 | 40 | 997.2 |
| 20260504223136 | 80 | 215 | 7.0 | 6.0 | 0.00 | 0.00 | 0.00 | 38 | 997.0 |
| 20260504222636 | 80 | 186 | 6.0 | 6.0 | 0.00 | 0.00 | 0.00 | 37 | 997.1 |
| 20260504222137 | 81 | 231 | 6.0 | 6.0 | 0.00 | 0.00 | 0.00 | 37 | 997.1 |
| 20260504221636 | 81 | 241 | 6.0 | 6.0 | 0.00 | 0.00 | 0.00 | 37 | 997.2 |
| 20260504221137 | 80 | 245 | 5.0 | 7.0 | 0.00 | 0.00 | 0.00 | 37 | 997.2 |
| 20260504220636 | 80 | 216 | 5.0 | 8.0 | 0.00 | 0.00 | 0.00 | 37 | 997.4 |
| 20260504220137 | 81 | 169 | 8.0 | 9.0 | 0.00 | 0.00 | 0.00 | 36 | 997.4 |
| 20260504215636 | 81 | 204 | 10.0 | 8.0 | 0.00 | 0.00 | 0.00 | 36 | 997.4 |
| 20260504215136 | 82 | 232 | 7.0 | 8.0 | 0.00 | 0.00 | 0.00 | 36 | 997.5 |
| 20260504214636 | 82 | 236 | 11.0 | 8.0 | 0.00 | 0.00 | 0.00 | 35 | 997.6 |
| 20260504214136 | 82 | 231 | 4.0 | 6.0 | 0.00 | 0.00 | 0.00 | 36 | 997.6 |
| 20260504213636 | 81 | 236 | 9.0 | 6.0 | 0.00 | 0.00 | 0.00 | 36 | 997.6 |
| 20260504213136 | 80 | 223 | 1.0 | 6.0 | 0.00 | 0.00 | 0.00 | 36 | 997.6 |
| 20260504212637 | 80 | 207 | 10.0 | 7.0 | 0.00 | 0.00 | 0.00 | 36 | 997.8 |
| 20260504212137 | 80 | 186 | 10.0 | 8.0 | 0.00 | 0.00 | 0.00 | 36 | 997.8 |
| 20260504211637 | 80 | 227 | 6.0 | 7.0 | 0.00 | 0.00 | 0.00 | 36 | 997.9 |
| 20260504211137 | 81 | 211 | 7.0 | 6.0 | 0.00 | 0.00 | 0.00 | 36 | 997.8 |
| 20260504210637 | 81 | 240 | 8.0 | 6.0 | 0.00 | 0.00 | 0.00 | 37 | 998.0 |
| 20260504210138 | 81 | 224 | 3.0 | 7.0 | 0.00 | 0.00 | 0.00 | 36 | 998.1 |
| 20260504205637 | 82 | 220 | 7.0 | 6.0 | 0.00 | 0.00 | 0.00 | 36 | 998.1 |
| 20260504205138 | 82 | 229 | 6.0 | 6.0 | 0.00 | 0.00 | 0.00 | 36 | 998.0 |
| 20260504204637 | 82 | 216 | 4.0 | 5.0 | 0.00 | 0.00 | 0.00 | 36 | 998.2 |
| 20260504204137 | 82 | 219 | 4.0 | 5.0 | 0.00 | 0.00 | 0.00 | 36 | 998.0 |
| 20260504203637 | 81 | 208 | 3.0 | 6.0 | 0.00 | 0.00 | 0.00 | 36 | 998.1 |
| 20260504203138 | 81 | 246 | 4.0 | 8.0 | 0.00 | 0.00 | 0.00 | 35 | 998.2 |
| 20260504202637 | 82 | 238 | 9.0 | 8.0 | 0.00 | 0.00 | 0.00 | 34 | 998.3 |
| 20260504202137 | 82 | 215 | 9.0 | 8.0 | 0.00 | 0.00 | 0.00 | 34 | 998.4 |
| 20260504201637 | 82 | 227 | 3.0 | 7.0 | 0.00 | 0.00 | 0.00 | 34 | 998.3 |
| 20260504201138 | 82 | 241 | 7.0 | 7.0 | 0.00 | 0.00 | 0.00 | 33 | 998.5 |
| 20260504200637 | 82 | 200 | 4.0 | 5.0 | 0.00 | 0.00 | 0.00 | 33 | 998.4 |
| 20260504200137 | 82 | 194 | 6.0 | 5.0 | 0.00 | 0.00 | 0.00 | 33 | 998.7 |
| 20260504195637 | 81 | 251 | 2.0 | 5.0 | 0.00 | 0.00 | 0.00 | 33 | 998.8 |
| 20260504195137 | 82 | 224 | 8.0 | 7.0 | 0.00 | 0.00 | 0.00 | 31 | 998.9 |
| 20260504194637 | 83 | 219 | 5.0 | 8.0 | 0.00 | 0.00 | 0.00 | 30 | 999.0 |
| 20260504194137 | 84 | 226 | 4.0 | 6.0 | 0.00 | 0.00 | 0.00 | 30 | 999.1 |
| 20260504193637 | 85 | 233 | 10.0 | 4.0 | 0.00 | 0.00 | 0.00 | 29 | 999.1 |
| 20260504193137 | 84 | 236 | 7.0 | 5.0 | 0.00 | 0.00 | 0.00 | 31 | 999.1 |
| 20260504192636 | 83 | 174 | 4.0 | 5.0 | 0.00 | 0.00 | 0.00 | 31 | 999.2 |
| 20260504192137 | 83 | 279 | 5.0 | 6.0 | 0.00 | 0.00 | 0.00 | 31 | 999.4 |
| 20260504191637 | 83 | 226 | 4.0 | 7.0 | 0.00 | 0.00 | 0.00 | 31 | 999.4 |
| 20260504191137 | 84 | 218 | 5.0 | 7.0 | 0.00 | 0.00 | 0.00 | 29 | 999.4 |
| 20260504190637 | 84 | 264 | 7.0 | 6.0 | 0.00 | 0.00 | 0.00 | 29 | 999.3 |
| 20260504190139 | 84 | 160 | 11.0 | 6.0 | 0.00 | 0.00 | 0.00 | 28 | 999.4 |
| 20260504185637 | 84 | 292 | 4.0 | 7.0 | 0.00 | 0.00 | 0.00 | 28 | 999.3 |
| 20260504185137 | 83 | 207 | 6.0 | 8.0 | 0.00 | 0.00 | 0.00 | 28 | 999.3 |
| 20260504184637 | 84 | 238 | 7.0 | 6.0 | 0.00 | 0.00 | 0.00 | 28 | 999.3 |
| 20260504184137 | 84 | 238 | 8.0 | 6.0 | 0.00 | 0.00 | 0.00 | 29 | 999.4 |
| 20260504183637 | 84 | 212 | 3.0 | 7.0 | 0.00 | 0.00 | 0.00 | 28 | 999.3 |
| 20260504183137 | 83 | 223 | 2.0 | 8.0 | 0.00 | 0.00 | 0.00 | 27 | 999.4 |
| 20260504182637 | 84 | 240 | 6.0 | 6.0 | 0.00 | 0.00 | 0.00 | 28 | 999.7 |
| 20260504182137 | 84 | 232 | 9.0 | 5.0 | 0.00 | 0.00 | 0.00 | 30 | 999.6 |
| 20260504181637 | 84 | 216 | 3.0 | 5.0 | 0.00 | 0.00 | 0.00 | 29 | 999.7 |
| 20260504181137 | 83 | 194 | 9.0 | 6.0 | 0.00 | 0.00 | 0.00 | 28 | 999.9 |
| 20260504180636 | 83 | 235 | 4.0 | 6.0 | 0.00 | 0.00 | 0.00 | 30 | 999.8 |
| 20260504180137 | 83 | 271 | 6.0 | 6.0 | 0.00 | 0.00 | 0.00 | 29 | 999.9 |
| 20260504175637 | 83 | 223 | 5.0 | 7.0 | 0.00 | 0.00 | 0.00 | 31 | 999.9 |
| 20260504175137 | 82 | 224 | 4.0 | 6.0 | 0.00 | 0.00 | 0.00 | 32 | 999.9 |
| 20260504174636 | 83 | 244 | 4.0 | 5.0 | 0.00 | 0.00 | 0.00 | 34 | 1000.0 |
| 20260504174137 | 82 | 233 | 4.0 | 5.0 | 0.00 | 0.00 | 0.00 | 34 | 1000.1 |
| 20260504173637 | 81 | 229 | 4.0 | 5.0 | 0.00 | 0.00 | 0.00 | 36 | 1000.0 |
| 20260504173137 | 81 | 184 | 4.0 | 7.0 | 0.00 | 0.00 | 0.00 | 36 | 1000.2 |
| 20260504172637 | 80 | 210 | 6.0 | 8.0 | 0.00 | 0.00 | 0.00 | 36 | 1000.2 |
| 20260504172138 | 80 | 203 | 12.0 | 7.0 | 0.00 | 0.00 | 0.00 | 35 | 1000.4 |
| 20260504171637 | 80 | 221 | 11.0 | 6.0 | 0.00 | 0.00 | 0.00 | 37 | 1000.4 |
| 20260504171137 | 80 | 206 | 4.0 | 7.0 | 0.00 | 0.00 | 0.00 | 37 | 1000.5 |
| 20260504170636 | 79 | 231 | 4.0 | 8.0 | 0.00 | 0.00 | 0.00 | 38 | 1000.5 |
| 20260504170137 | 79 | 214 | 8.0 | 8.0 | 0.00 | 0.00 | 0.00 | 37 | 1000.6 |
| 20260504160137 | 76 | 173 | 5.0 | 7.0 | 0.00 | 0.00 | 0.00 | 37 | 1001.5 |
| 20260504151137 | 72 | 210 | 5.0 | 6.0 | 0.00 | 0.00 | 0.00 | 41 | 1002.1 |
| 20260504150636 | 71 | 209 | 8.0 | 7.0 | 0.00 | 0.00 | 0.00 | 42 | 1002.2 |
| 20260504150137 | 71 | 172 | 6.0 | 6.0 | 0.00 | 0.00 | 0.00 | 41 | 1002.2 |
| 20260504141137 | 66 | 219 | 9.0 | 5.0 | 0.00 | 0.00 | 0.00 | 52 | 1002.8 |
| 20260504140637 | 65 | 234 | 8.0 | 5.0 | 0.00 | 0.00 | 0.00 | 53 | 1002.8 |
| 20260504140137 | 65 | 224 | 4.0 | 5.0 | 0.00 | 0.00 | 0.00 | 54 | 1002.9 |
| 20260504130636 | 58 | 238 | 4.0 | 4.0 | 0.00 | 0.00 | 0.00 | 69 | 1003.5 |
| 20260504130137 | 57 | 225 | 1.0 | 4.0 | 0.00 | 0.00 | 0.00 | 70 | 1003.6 |
| 20260504120136 | 53 | 209 | 3.0 | 3.0 | 0.00 | 0.00 | 0.00 | 78 | 1003.8 |
| 20260504110636 | 51 | 181 | 2.0 | 3.0 | 0.00 | 0.00 | 0.00 | 78 | 1003.8 |
| 20260504110136 | 51 | 210 | 4.0 | 4.0 | 0.00 | 0.00 | 0.00 | 78 | 1003.9 |